Location: Berlin
(38.3226°N, 75.2177°W)
Time: 15:28:51
(UTC+00:00)

Cosmos 2228 - Pass Details

Date: 26 October 2020
Orbit: 590 x 617 km, 82.5° (Epoch: 26 November)

Event Time Altitude Azimuth Distance (km) Brightness Sun altitude
Rises 10:43:38 0° 338° (NNW) 2,877 6.2 -8.1°
Reaches altitude 10° 10:46:09 10° 325° (NW) 1,972 5.2 -7.6°
Maximum altitude 10:49:41 24° 271° (W) 1,268 4.1 -6.9°
Drops below altitude 10° 10:53:12 10° 217° (SW) 1,970 5.4 -6.2°
Sets 10:55:44 0° 204° (SSW) 2,872 6.4 -5.7°
